Wind_Speed
13 12 11 10 9 8 7 8 6 10 11 9 12 14 14 15 17 18 20 21 22 23 23 24 24 24 23 25 27 29 30 36 40 43 43 42 36 36 39 45 42 40 20
9 8 7 6 5 4 3 1 4 8 12 12 13 14 16 18 22 22 22 22 23 26 27 27 28 29 27 27 28 28 29 28 34 42 42 43 42 37 36 39 35 40 38
7 4 2 3 2 1 0 2 6 11 12 14 17 18 20 21 24 26 25 25 26 26 28 30 31 32 30 31 31 33 31 30 31 39 44 47 43 43 38 43 35 31 31
8 6 5 5 5 5 5 8 11 13 14 17 19 22 25 25 25 28 30 29 30 31 31 33 31 33 30 33 35 32 33 35 34 36 43 47 48 41 38 41 33 25 27
10 10 8 7 8 9 12 14 16 17 19 20 22 23 25 26 29 32 33 33 34 34 32 33 36 38 38 36 38 35 33 32 32 34 40 44 48 46 38 37 31 30 27
14 12 12 12 13 15 18 20 21 23 24 25 25 27 26 30 30 31 33 36 36 36 29 35 37 40 45 42 39 38 39 33 35 39 43 42 44 43 41 33 31 31 31
18 17 16 16 19 23 24 26 27 28 28 29 27 27 28 30 31 31 33 39 39 44 37 38 42 44 42 44 46 53 50 38 43 44 46 48 46 53 41 39 34 35 32
24 23 23 22 25 29 30 31 30 31 31 29 29 29 30 32 34 36 36 37 40 39 35 37 48 51 47 46 48 46 42 48 47 49 54 49 53 54 41 42 42 37 36
30 29 30 29 30 33 34 35 32 32 31 31 30 30 31 33 35 37 39 39 47 39 42 38 39 42 53 51 49 46 50 51 53 54 49 50 63 61 47 45 50 41 39
34 33 34 33 34 36 37 38 36 35 34 33 33 33 35 37 40 44 46 45 45 44 38 43 42 49 50 51 53 54 53 57 52 59 51 58 65 64 60 49 41 31 32
41 39 39 38 38 40 41 40 39 38 38 37 35 36 40 42 44 46 45 44 52 45 40 42 47 46 52 53 52 55 58 56 59 48 55 70 72 66 57 57 31 29 40
45 43 42 41 43 43 44 42 41 40 41 40 37 38 41 45 47 50 50 48 46 45 41 40 48 47 51 56 60 64 59 56 52 53 69 75 66 66 64 40 42 41 38
48 46 45 45 46 45 45 45 45 43 43 43 41 43 44 48 50 52 50 45 43 47 48 48 50 52 54 59 57 64 62 53 68 72 75 75 71 69 65 61 53 47 44
48 47 48 48 46 46 47 48 49 49 48 48 47 48 48 50 48 49 46 48 47 47 48 48 49 51 59 64 66 67 69 72 77 81 79 80 78 76 72 64 66 53 49
53 52 52 51 49 49 50 52 54 53 52 53 54 55 55 52 50 45 43 46 49 52 51 49 54 60 64 66 67 71 75 78 73 72 74 75 76 68 66 60 56 53 61
59 57 56 54 54 54 53 54 57 58 57 58 61 62 60 55 51 46 43 46 51 51 55 58 61 63 68 69 70 74 73 75 67 70 67 62 59 66 63 64 66 64 70
61 62 60 60 58 58 58 58 61 64 62 63 66 68 65 59 55 48 47 52 55 58 60 61 66 65 70 71 72 70 71 65 62 64 67 72 70 61 60 64 67 72 69
66 65 65 65 64 62 62 65 66 67 67 69 71 72 71 67 61 53 52 54 59 64 66 67 68 68 68 68 69 67 66 60 62 65 70 72 71 62 58 61 68 72 74
70 69 69 68 68 68 68 69 69 69 70 71 74 75 74 69 63 60 59 61 65 66 69 71 69 70 63 62 66 66 69 68 69 72 70 72 65 65 70 68 71 73 73
75 75 73 72 72 73 74 74 73 73 73 73 73 72 69 67 66 66 67 68 72 73 74 72 69 59 58 61 62 65 65 69 74 77 75 71 69 66 69 70 73 73 80
79 80 78 77 77 78 79 78 76 75 75 73 71 69 68 68 71 71 70 74 76 78 72 69 65 64 60 60 60 66 73 73 75 79 80 72 69 69 74 76 78 78 78
85 84 83 82 81 82 81 80 78 78 74 71 70 69 71 69 71 75 75 76 75 76 71 68 69 64 62 64 67 71 75 78 81 82 81 84 80 76 76 77 77 78 77
88 88 87 86 84 83 81 79 77 72 71 71 70 70 75 76 73 75 79 79 77 75 73 77 74 63 65 70 73 79 81 84 84 84 82 83 82 80 78 80 76 78 77
86 87 84 83 81 80 78 77 74 71 71 73 72 74 74 78 80 77 71 76 75 76 76 77 73 71 73 73 73 74 78 85 86 88 93 93 85 78 77 77 80 80 82
83 82 82 81 80 78 77 76 73 72 74 75 78 76 79 80 80 78 75 78 80 79 80 78 79 78 80 81 85 88 92 93 95 94 84 73 78 77 78 79 83 85 87
82 82 82 82 81 79 79 78 76 74 77 79 80 79 80 79 80 76 78 82 80 81 80 82 81 83 85 89 94 96 96 84 78 75 77 76 79 81 85 87 87 85 78
Wind_Direction
123 121 117 114 108 104 106 112 84 40 29 20 0 13 0 355 352 354 352 347 346 346 344 339 337 340 340 345 344 345 8 13 6 10 11 10 4 357 357 2 0 7 265
126 119 122 127 116 76 73 122 44 5 3 358 356 349 348 342 343 345 344 343 341 343 345 342 339 338 338 338 342 343 338 351 358 4 6 8 5 356 354 354 3 359 0
170 159 156 213 215 221 108 325 332 338 346 346 340 342 343 339 336 337 341 342 343 345 346 344 341 338 336 338 340 342 334 333 343 359 357 357 1 355 350 352 351 357 357
203 220 236 250 246 259 277 297 312 322 324 330 335 338 337 335 337 338 340 344 344 346 344 342 338 336 332 343 344 338 340 336 330 335 343 348 346 353 346 347 346 345 349
226 234 246 253 261 276 285 293 305 314 317 323 327 328 329 330 336 343 341 341 342 339 340 346 344 342 338 332 335 331 332 329 329 328 332 339 337 339 341 340 340 337 332
235 238 247 260 269 278 288 298 305 309 312 316 321 324 327 329 339 339 336 336 336 331 337 335 337 335 331 331 326 326 332 324 325 323 332 330 328 338 330 328 337 327 315
251 251 252 261 273 282 288 293 298 302 308 313 319 320 324 329 334 330 330 331 329 336 324 329 328 328 330 327 325 325 322 315 320 324 327 330 323 331 319 324 329 320 308
256 257 263 266 272 278 285 289 293 299 304 310 313 320 325 328 326 324 328 327 323 322 329 318 312 311 318 322 318 315 311 314 319 320 326 325 325 329 321 314 319 317 298
261 263 265 269 273 277 281 284 290 296 302 308 313 317 321 320 319 320 319 318 325 311 323 313 310 306 313 317 317 308 307 314 314 317 321 314 323 326 324 319 317 314 311
259 262 265 270 272 276 280 285 290 295 302 305 309 315 317 318 320 321 320 321 320 319 314 313 305 306 306 314 314 310 309 315 311 316 310 313 320 322 322 321 311 319 319
256 259 263 269 273 276 279 283 289 293 297 300 307 315 315 316 317 318 318 314 317 317 317 311 308 301 306 308 306 308 311 312 313 308 304 314 313 319 316 323 305 311 330
257 260 264 267 270 273 276 281 285 289 294 297 303 305 309 313 314 315 315 313 311 312 311 308 306 303 308 304 303 306 309 313 316 308 307 308 312 316 318 319 317 319 321
260 263 266 267 269 272 276 281 286 287 288 290 298 302 305 307 311 314 312 308 307 311 309 308 305 305 303 300 302 304 304 297 302 304 306 306 310 311 314 319 321 321 316
261 264 265 267 271 274 279 283 284 285 288 292 297 299 300 303 308 308 307 310 309 309 309 307 305 298 296 297 297 297 296 295 298 299 304 304 305 306 314 317 319 317 317
261 262 266 268 271 274 277 280 283 286 289 291 294 295 298 301 308 304 304 304 308 311 313 305 298 295 297 293 290 290 292 294 298 303 305 306 308 312 317 323 318 314 317
262 265 267 270 272 275 277 280 282 284 288 291 292 295 297 301 307 300 299 303 306 307 307 304 303 297 298 297 293 293 294 295 304 302 306 305 307 312 318 316 312 307 313
258 263 266 268 271 273 275 278 282 284 288 290 292 294 297 304 305 298 298 300 304 307 308 305 305 296 296 297 291 293 295 299 300 300 300 301 306 311 309 304 303 304 307
253 256 261 265 268 271 275 278 281 283 287 291 294 297 301 303 302 299 298 301 304 305 305 304 302 298 296 292 287 287 292 292 294 300 303 303 302 295 292 294 300 298 299
250 253 256 261 265 268 271 275 278 281 284 287 291 295 299 302 300 300 302 301 303 303 304 303 302 300 296 289 283 284 288 293 295 296 299 302 297 293 296 296 297 302 304
249 252 255 259 263 266 268 271 274 279 283 287 291 295 297 297 296 298 300 301 303 306 305 304 304 298 290 288 283 280 288 295 294 296 297 300 297 297 298 300 303 304 304
251 255 257 259 261 265 269 272 277 281 284 288 291 292 292 291 294 298 300 301 305 305 304 302 301 297 293 289 286 287 283 290 297 302 302 301 297 296 296 297 299 303 304
252 255 257 259 262 265 270 275 278 281 284 287 287 290 288 290 293 299 300 302 301 301 300 297 297 297 293 286 284 291 296 298 298 300 301 305 300 299 297 298 300 303 306
254 256 259 262 265 269 272 274 277 279 282 283 286 288 288 292 294 295 297 299 298 298 297 299 300 295 292 292 294 299 297 296 300 303 302 305 303 298 298 299 302 306 306
254 257 260 264 266 269 271 273 276 279 282 283 284 284 289 290 293 295 293 296 296 297 296 297 298 296 300 300 300 297 299 304 304 305 306 305 303 298 299 303 305 306 304
253 256 259 263 265 267 269 272 275 278 281 283 283 286 287 289 291 293 294 295 296 297 297 296 296 299 304 304 306 306 305 302 303 302 302 300 301 302 304 305 304 303 303
253 256 259 262 264 266 268 271 275 277 279 280 284 286 288 290 291 291 291 294 294 294 294 293 296 301 304 306 304 300 302 300 301 302 303 303 304 305 306 304 302 301 299
Height
10983 10984 10984 10985 10985 10986 10986 10986 10986 10985 10984 10983 10982 10980 10980 10979 10977 10975 10973 10969 10966 10962 10959 10955 10951 10947 10944 10940 10937 10934 10929 10923 10918 10913 10909 10904 10899 10891 10884 10878 10875 10873 10869
10983 10983 10984 10984 10985 10985 10986 10985 10984 10982 10982 10981 10980 10979 10978 10977 10975 10972 10970 10968 10964 10960 10955 10952 10949 10946 10941 10936 10933 10931 10927 10922 10917 10911 10905 10901 10897 10892 10885 10880 10872 10866 10867
10983 10983 10983 10983 10983 10983 10983 10983 10982 10980 10979 10978 10978 10977 10975 10973 10971 10970 10968 10965 10961 10957 10953 10949 10945 10941 10937 10932 10930 10927 10924 10918 10913 10907 10902 10898 10894 10889 10884 10880 10875 10868 10860
10981 10981 10981 10980 10980 10980 10980 10980 10979 10978 10977 10976 10975 10974 10972 10969 10967 10965 10962 10958 10954 10951 10947 10943 10939 10935 10931 10928 10924 10921 10919 10915 10910 10905 10900 10893 10889 10886 10881 10877 10873 10869 10865
10978 10978 10978 10977 10977 10977 10977 10976 10976 10975 10974 10973 10972 10970 10967 10965 10963 10960 10956 10952 10948 10943 10940 10937 10934 10931 10927 10922 10918 10916 10913 10909 10904 10900 10896 10892 10885 10881 10878 10871 10868 10864 10863
10973 10973 10973 10974 10973 10972 10972 10972 10971 10971 10970 10969 10968 10965 10962 10960 10958 10954 10950 10947 10942 10938 10934 10929 10926 10922 10919 10916 10912 10908 10904 10900 10896 10894 10889 10885 10880 10876 10871 10868 10863 10860 10856
10968 10969 10968 10968 10968 10967 10967 10967 10967 10965 10965 10964 10963 10960 10958 10956 10953 10949 10945 10942 10939 10933 10929 10923 10919 10914 10911 10909 10904 10900 10895 10890 10885 10881 10879 10877 10871 10867 10863 10860 10856 10852 10847
10964 10964 10963 10964 10964 10963 10962 10961 10961 10960 10959 10959 10956 10955 10953 10950 10947 10943 10940 10937 10934 10929 10923 10920 10914 10909 10904 10900 10896 10891 10886 10881 10876 10871 10868 10864 10861 10857 10852 10848 10843 10840 10837
10957 10958 10958 10959 10958 10957 10955 10954 10954 10953 10953 10952 10950 10950 10948 10945 10942 10938 10935 10931 10926 10921 10917 10913 10907 10902 10895 10891 10886 10881 10877 10872 10867 10863 10859 10853 10849 10846 10840 10836 10831 10824 10824
10950 10952 10951 10951 10950 10949 10948 10946 10946 10946 10945 10944 10944 10943 10940 10937 10934 10930 10926 10923 10919 10914 10909 10903 10898 10894 10888 10883 10878 10872 10868 10863 10858 10854 10849 10844 10838 10835 10830 10825 10819 10815 10809
10941 10944 10944 10944 10942 10941 10940 10939 10938 10938 10937 10937 10937 10934 10930 10929 10927 10925 10920 10914 10908 10904 10900 10895 10889 10883 10877 10873 10867 10861 10857 10853 10849 10842 10839 10833 10826 10823 10819 10815 10809 10804 10797
10931 10934 10935 10935 10932 10932 10932 10932 10932 10932 10931 10930 10931 10930 10926 10922 10920 10914 10910 10906 10900 10894 10891 10885 10879 10875 10869 10862 10857 10850 10845 10841 10838 10834 10827 10820 10813 10809 10803 10799 10797 10791 10787
10920 10923 10924 10925 10924 10923 10922 10922 10923 10924 10924 10923 10923 10920 10918 10915 10910 10905 10900 10894 10891 10885 10879 10874 10868 10863 10857 10852 10846 10841 10835 10832 10827 10820 10812 10808 10801 10796 10791 10786 10780 10775 10772
10910 10913 10913 10914 10915 10914 10913 10912 10912 10912 10913 10912 10911 10910 10909 10907 10903 10896 10890 10883 10878 10875 10871 10864 10857 10854 10848 10842 10837 10832 10828 10821 10812 10803 10797 10791 10786 10779 10774 10769 10764 10760 10758
10898 10900 10901 10902 10903 10903 10903 10903 10901 10901 10901 10900 10898 10896 10896 10896 10892 10887 10882 10874 10866 10861 10858 10852 10848 10841 10836 10830 10824 10818 10812 10805 10795 10789 10782 10774 10768 10760 10754 10748 10746 10742 10739
10883 10884 10887 10889 10890 10890 10892 10892 10890 10888 10889 10886 10883 10881 10881 10881 10880 10875 10871 10867 10858 10852 10849 10844 10835 10828 10823 10816 10809 10803 10796 10788 10783 10775 10769 10761 10752 10745 10741 10737 10732 10728 10724
10873 10873 10875 10876 10878 10878 10880 10879 10875 10871 10873 10871 10866 10864 10865 10866 10865 10863 10858 10853 10846 10841 10836 10830 10824 10815 10809 10802 10795 10790 10781 10775 10768 10761 10754 10749 10742 10735 10730 10725 10718 10713 10707
10859 10862 10862 10862 10863 10865 10865 10862 10860 10858 10858 10854 10848 10847 10848 10849 10846 10846 10845 10840 10834 10828 10823 10817 10810 10802 10795 10789 10782 10776 10770 10762 10752 10746 10739 10735 10730 10722 10717 10710 10704 10697 10690
10843 10846 10847 10849 10849 10851 10850 10848 10847 10847 10846 10843 10839 10837 10835 10833 10829 10828 10827 10824 10819 10814 10807 10801 10795 10786 10779 10774 10768 10762 10754 10748 10740 10734 10728 10721 10713 10707 10699 10694 10685 10677 10668
10828 10828 10833 10835 10835 10835 10833 10834 10836 10836 10834 10831 10830 10826 10823 10819 10814 10813 10811 10806 10801 10796 10790 10783 10776 10769 10764 10757 10752 10745 10738 10731 10724 10719 10710 10705 10695 10688 10680 10672 10664 10656 10648
10813 10814 10819 10821 10821 10819 10817 10819 10823 10823 10821 10820 10817 10813 10810 10805 10800 10798 10795 10789 10782 10777 10771 10766 10760 10755 10749 10742 10735 10726 10722 10715 10707 10700 10692 10684 10676 10669 10660 10652 10644 10636 10628
10796 10799 10801 10804 10806 10806 10807 10808 10809 10807 10807 10805 10801 10798 10794 10792 10788 10783 10778 10774 10769 10762 10755 10749 10744 10739 10732 10724 10715 10709 10701 10693 10685 10680 10672 10664 10655 10648 10641 10632 10623 10615 10607
10780 10782 10783 10786 10791 10792 10793 10794 10793 10794 10793 10790 10788 10785 10778 10775 10773 10768 10763 10759 10753 10747 10740 10734 10728 10721 10712 10705 10698 10690 10681 10673 10665 10656 10649 10641 10633 10625 10619 10609 10602 10594 10586
10763 10765 10770 10773 10774 10775 10776 10775 10777 10779 10777 10774 10772 10769 10764 10758 10753 10750 10744 10740 10733 10726 10722 10716 10708 10702 10691 10683 10676 10668 10661 10652 10643 10633 10625 10617 10611 10603 10597 10588 10578 10571 10564
10747 10750 10753 10755 10755 10757 10757 10758 10761 10764 10761 10755 10752 10751 10745 10741 10736 10731 10726 10721 10713 10705 10700 10694 10686 10677 10671 10661 10652 10642 10635 10627 10617 10610 10602 10593 10587 10580 10571 10563 10556 10548 10539
10733 10735 10736 10738 10738 10740 10738 10742 10747 10747 10741 10738 10735 10730 10726 10722 10717 10713 10706 10701 10694 10687 10680 10672 10665 10656 10647 10638 10630 10620 10611 10602 10594 10587 10581 10573 10565 10556 10546 10539 10531 10523 10514